O3B FM14 (43233 NORAD) Tracking and Keplerian Element Data

This shows tracking and keplerian element data for the satellite.

Feedback or suggestion? Click here.




ElementValue
Catalog43233
NameO3B FM14
Epoch Orbit1272
Epoch Day322.70374868
Epoch Year2018
RAAN359.6327
Inclination0.036
Eccentricity0.0002988
Argument of Perigee244.2436
Mean Anonmoly116.1
Mean Motion5.00115623
Decay Rate-1.7E-07
L11 43233U 18024C 18322.70374868 -.00000017 00000-0 00000-0 0 9998
L22 43233 0.0360 359.6327 0002988 244.2436 116.1000 5.00115623 12727

Live tracking and technical data element details for O3B FM14 (NORAD 43233). O3B FM14 can be tracked NOW for your location showing map with azimuth and elevation plus other details from your city location.

Track the satellite on the map from your city or location and see movement details for azimuth, elevation, latitude, longitude, range, height, and movement on the map or in text.







IsCatalogInMostPopularTable: catalog: 43233, numindb: 86
Update: records affected: 1



GetName: 43233 O3B FM14

Hit Count: updated at: Tue, 20 Nov 2018 07:54:33 GMT